| time (UTC) | temp F | wind direction | speed MPH | gust MPH | rain 1hr in | rain 24hr in | rain mn in | humidity % | barometer mb |
| 20260502194016 | 38 | 23 | 3.0 | 11.0 | 0.00 | 0.00 | 0.00 | 89 | 1008.4 |
| 20260502193016 | 38 | 45 | 4.0 | 10.0 | 0.00 | 0.00 | 0.00 | 89 | 1008.3 |
| 20260502192037 | 38 | 293 | 4.0 | 12.0 | 0.00 | 0.00 | 0.00 | 88 | 1008.2 |
| 20260502191016 | 38 | 45 | 3.0 | 10.0 | 0.00 | 0.00 | 0.00 | 88 | 1008.1 |
| 20260502190016 | 39 | 23 | 3.0 | 9.0 | 0.00 | 0.00 | 0.00 | 87 | 1007.9 |
| 20260502185016 | 39 | 293 | 4.0 | 14.0 | 0.00 | 0.00 | 0.00 | 87 | 1007.7 |
| 20260502184017 | 39 | 293 | 5.0 | 18.0 | 0.00 | 0.00 | 0.00 | 89 | 1007.6 |
| 20260502183016 | 38 | 225 | 2.0 | 8.0 | 0.00 | 0.00 | 0.00 | 91 | 1007.5 |
| 20260502182016 | 38 | 180 | 3.0 | 9.0 | 0.00 | 0.00 | 0.00 | 91 | 1007.5 |
| 20260502181017 | 38 | 248 | 3.0 | 11.0 | 0.00 | 0.00 | 0.00 | 90 | 1007.4 |
| 20260502164016 | 41 | 248 | 3.0 | 9.0 | 0.00 | 0.00 | 0.00 | 77 | 1007.9 |
| 20260502163016 | 41 | 248 | 3.0 | 12.0 | 0.00 | 0.00 | 0.00 | 77 | 1007.9 |
| 20260502162016 | 41 | 248 | 3.0 | 11.0 | 0.00 | 0.00 | 0.00 | 75 | 1007.9 |
| 20260502161016 | 41 | 270 | 2.0 | 10.0 | 0.00 | 0.00 | 0.00 | 78 | 1008.0 |
| 20260502152016 | 41 | 293 | 3.0 | 8.0 | 0.00 | 0.00 | 0.00 | 81 | 1008.1 |
| 20260502151036 | 42 | 248 | 1.0 | 6.0 | 0.00 | 0.00 | 0.00 | 84 | 1008.1 |
| 20260502123016 | 46 | 158 | 2.0 | 4.0 | 0.00 | 0.00 | 0.00 | 59 | 1007.8 |
| 20260502122016 | 45 | 293 | 3.0 | 9.0 | 0.00 | 0.00 | 0.00 | 61 | 1007.7 |
| 20260502121016 | 44 | 158 | 3.0 | 9.0 | 0.00 | 0.00 | 0.00 | 68 | 1007.7 |
| 20260502115036 | 43 | 270 | 4.0 | 11.0 | 0.00 | 0.00 | 0.00 | 71 | 1007.7 |
| 20260502114036 | 44 | 293 | 2.0 | 8.0 | 0.00 | 0.00 | 0.00 | 69 | 1007.8 |
| 20260502113036 | 44 | 225 | 3.0 | 11.0 | 0.00 | 0.00 | 0.00 | 67 | 1007.6 |
| 20260502112016 | 45 | 293 | 3.0 | 7.0 | 0.00 | 0.00 | 0.00 | 64 | 1007.7 |
| 20260502111016 | 45 | 248 | 4.0 | 10.0 | 0.00 | 0.00 | 0.00 | 61 | 1007.5 |
| 20260502110015 | 46 | 113 | 5.0 | 13.0 | 0.00 | 0.00 | 0.00 | 61 | 1007.5 |
| 20260502105015 | 46 | 293 | 3.0 | 8.0 | 0.00 | 0.00 | 0.00 | 63 | 1007.5 |
| 20260502104015 | 47 | 293 | 3.0 | 8.0 | 0.00 | 0.00 | 0.00 | 62 | 1007.4 |
| 20260502103036 | 45 | 293 | 5.0 | 11.0 | 0.00 | 0.00 | 0.00 | 62 | 1007.5 |
| 20260502102015 | 47 | 270 | 3.0 | 13.0 | 0.00 | 0.00 | 0.00 | 66 | 1007.5 |
| 20260502101016 | 46 | 293 | 4.0 | 8.0 | 0.00 | 0.00 | 0.00 | 63 | 1007.4 |
| 20260502091016 | 43 | 248 | 4.0 | 9.0 | 0.00 | 0.00 | 0.00 | 78 | 1007.1 |
| 20260502071015 | 40 | 158 | 1.0 | 4.0 | 0.00 | 0.00 | 0.00 | 93 | 1006.2 |
| 20260502070037 | 40 | 225 | 3.0 | 9.0 | 0.00 | 0.00 | 0.00 | 93 | 1006.2 |
| 20260502065017 | 40 | 180 | 1.0 | 4.0 | 0.00 | 0.00 | 0.00 | 93 | 1006.1 |
| 20260502064017 | 40 | 225 | 2.0 | 6.0 | 0.00 | 0.00 | 0.00 | 93 | 1006.0 |
| 20260502063057 | 40 | 225 | 3.0 | 9.0 | 0.00 | 0.00 | 0.00 | 93 | 1005.8 |
| 20260502062017 | 39 | 248 | 3.0 | 7.0 | 0.00 | 0.00 | 0.00 | 92 | 1005.8 |
| 20260502061015 | 39 | 293 | 2.0 | 8.0 | 0.00 | 0.00 | 0.00 | 92 | 1005.9 |
| 20260502060037 | 40 | 293 | 4.0 | 10.0 | 0.00 | 0.00 | 0.00 | 92 | 1005.8 |
| 20260502055037 | 40 | 293 | 3.0 | 9.0 | 0.00 | 0.00 | 0.00 | 92 | 1005.7 |
| 20260502054017 | 40 | 225 | 1.0 | 3.0 | 0.00 | 0.00 | 0.00 | 93 | 1005.5 |
| 20260502053037 | 40 | 270 | 2.0 | 6.0 | 0.00 | 0.00 | 0.00 | 93 | 1005.3 |
| 20260502052017 | 40 | 225 | 1.0 | 4.0 | 0.00 | 0.00 | 0.00 | 93 | 1005.3 |
| 20260502051017 | 41 | 315 | 3.0 | 9.0 | 0.00 | 0.00 | 0.00 | 93 | 1005.3 |
| 20260502050017 | 41 | 315 | 3.0 | 14.0 | 0.00 | 0.00 | 0.00 | 93 | 1005.1 |
| 20260502045017 | 42 | 248 | 2.0 | 7.0 | 0.00 | 0.00 | 0.00 | 93 | 1005.0 |
| 20260502044017 | 42 | 293 | 5.0 | 9.0 | 0.00 | 0.00 | 0.00 | 92 | 1004.8 |
| 20260502043017 | 43 | 270 | 3.0 | 7.0 | 0.00 | 0.00 | 0.00 | 90 | 1004.7 |
| 20260502042017 | 46 | 293 | 4.0 | 15.0 | 0.00 | 0.00 | 0.00 | 85 | 1004.6 |
| 20260502041017 | 46 | 225 | 4.0 | 12.0 | 0.00 | 0.00 | 0.00 | 86 | 1004.2 |
| 20260502040017 | 46 | 270 | 3.0 | 10.0 | 0.00 | 0.00 | 0.00 | 86 | 1004.2 |
| 20260502035017 | 46 | 225 | 3.0 | 8.0 | 0.00 | 0.00 | 0.00 | 86 | 1004.2 |
| 20260502034037 | 46 | 248 | 3.0 | 8.0 | 0.00 | 0.00 | 0.00 | 86 | 1004.3 |
| 20260502033017 | 46 | 225 | 4.0 | 8.0 | 0.00 | 0.00 | 0.00 | 86 | 1004.4 |
| 20260502032017 | 46 | 158 | 2.0 | 6.0 | 0.00 | 0.00 | 0.00 | 86 | 1004.6 |
| 20260502031017 | 46 | 270 | 2.0 | 7.0 | 0.00 | 0.00 | 0.00 | 86 | 1004.7 |
| 20260502030017 | 46 | 248 | 2.0 | 5.0 | 0.00 | 0.00 | 0.00 | 86 | 1004.8 |
| 20260502025037 | 46 | 158 | 4.0 | 11.0 | 0.00 | 0.00 | 0.00 | 85 | 1004.9 |
| 20260502024017 | 46 | 225 | 3.0 | 11.0 | 0.00 | 0.00 | 0.00 | 85 | 1005.0 |
| 20260502023017 | 46 | 135 | 3.0 | 9.0 | 0.00 | 0.00 | 0.00 | 84 | 1005.1 |
| 20260502022017 | 46 | 293 | 3.0 | 8.0 | 0.00 | 0.00 | 0.00 | 84 | 1005.2 |
| 20260502021016 | 46 | 180 | 4.0 | 10.0 | 0.00 | 0.00 | 0.00 | 84 | 1005.2 |
| 20260502020036 | 47 | 225 | 3.0 | 13.0 | 0.00 | 0.00 | 0.00 | 83 | 1005.2 |
| 20260502015017 | 47 | 225 | 4.0 | 8.0 | 0.00 | 0.00 | 0.00 | 84 | 1005.3 |
| 20260502014016 | 47 | 248 | 4.0 | 11.0 | 0.00 | 0.00 | 0.00 | 87 | 1005.4 |
| 20260502013016 | 47 | 248 | 3.0 | 13.0 | 0.00 | 0.00 | 0.00 | 88 | 1005.4 |
| 20260502012017 | 47 | 158 | 4.0 | 14.0 | 0.00 | 0.00 | 0.00 | 88 | 1005.3 |
| 20260502011017 | 47 | 225 | 2.0 | 5.0 | 0.00 | 0.00 | 0.00 | 88 | 1005.5 |
| 20260502010016 | 47 | 225 | 3.0 | 11.0 | 0.00 | 0.00 | 0.00 | 88 | 1005.5 |
| 20260502005016 | 47 | 225 | 3.0 | 7.0 | 0.00 | 0.00 | 0.00 | 88 | 1005.6 |
| 20260502004016 | 47 | 225 | 3.0 | 10.0 | 0.00 | 0.00 | 0.00 | 88 | 1005.8 |
| 20260502003017 | 47 | 203 | 3.0 | 10.0 | 0.00 | 0.00 | 0.00 | 89 | 1005.9 |
| 20260502002017 | 47 | 225 | 2.0 | 6.0 | 0.00 | 0.00 | 0.00 | 89 | 1006.0 |
| 20260502001016 | 47 | 248 | 3.0 | 8.0 | 0.00 | 0.00 | 0.00 | 89 | 1005.8 |
| 20260502000016 | 47 | 135 | 3.0 | 15.0 | 0.00 | 0.00 | 0.00 | 89 | 1006.1 |
| 20260501235016 | 47 | 158 | 4.0 | 14.0 | 0.00 | 0.00 | 0.00 | 89 | 1006.2 |
| 20260501234036 | 47 | 135 | 6.0 | 15.0 | 0.00 | 0.00 | 0.00 | 90 | 1006.2 |
| 20260501233016 | 47 | 135 | 6.0 | 14.0 | 0.00 | 0.00 | 0.00 | 90 | 1006.4 |
| 20260501232016 | 46 | 158 | 3.0 | 9.0 | 0.00 | 0.00 | 0.00 | 90 | 1006.5 |
| 20260501231016 | 46 | 158 | 6.0 | 14.0 | 0.00 | 0.00 | 0.00 | 91 | 1006.7 |
| 20260501230016 | 46 | 158 | 4.0 | 13.0 | 0.00 | 0.00 | 0.00 | 91 | 1006.8 |
| 20260501225016 | 47 | 158 | 5.0 | 13.0 | 0.00 | 0.00 | 0.00 | 90 | 1006.8 |
| 20260501224016 | 47 | 158 | 4.0 | 10.0 | 0.00 | 0.00 | 0.00 | 89 | 1007.1 |
| 20260501223016 | 47 | 180 | 3.0 | 11.0 | 0.00 | 0.00 | 0.00 | 89 | 1007.3 |
| 20260501222036 | 47 | 225 | 4.0 | 14.0 | 0.00 | 0.00 | 0.00 | 88 | 1007.2 |
| 20260501221016 | 47 | 248 | 2.0 | 6.0 | 0.00 | 0.00 | 0.00 | 87 | 1007.4 |
| 20260501220016 | 47 | 225 | 4.0 | 14.0 | 0.00 | 0.00 | 0.00 | 87 | 1007.4 |
| 20260501215016 | 47 | 158 | 6.0 | 17.0 | 0.00 | 0.00 | 0.00 | 87 | 1007.3 |
| 20260501214017 | 47 | 158 | 4.0 | 12.0 | 0.00 | 0.00 | 0.00 | 86 | 1007.4 |
| 20260501213016 | 48 | 158 | 3.0 | 11.0 | 0.00 | 0.00 | 0.00 | 85 | 1007.4 |
| 20260501212037 | 48 | 203 | 2.0 | 5.0 | 0.00 | 0.00 | 0.00 | 84 | 1007.4 |
| 20260501211016 | 48 | 225 | 3.0 | 7.0 | 0.00 | 0.00 | 0.00 | 84 | 1007.5 |
| 20260501210016 | 48 | 135 | 4.0 | 14.0 | 0.00 | 0.00 | 0.00 | 83 | 1007.3 |
| 20260501205017 | 48 | 203 | 2.0 | 9.0 | 0.00 | 0.00 | 0.00 | 82 | 1007.7 |
| 20260501204017 | 48 | 135 | 4.0 | 12.0 | 0.00 | 0.00 | 0.00 | 82 | 1008.0 |
| 20260501203016 | 48 | 270 | 2.0 | 4.0 | 0.00 | 0.00 | 0.00 | 81 | 1008.2 |
| 20260501202017 | 48 | 225 | 3.0 | 13.0 | 0.00 | 0.00 | 0.00 | 81 | 1008.2 |
| 20260501201017 | 48 | 293 | 3.0 | 7.0 | 0.00 | 0.00 | 0.00 | 80 | 1008.4 |
| 20260501200037 | 48 | 293 | 2.0 | 8.0 | 0.00 | 0.00 | 0.00 | 80 | 1008.4 |
| 20260501195017 | 48 | 225 | 4.0 | 12.0 | 0.00 | 0.00 | 0.00 | 80 | 1008.4 |